Voltar ao catálogo

STARLINK-4751

AtivoComunicaçõesVLEO
NORAD 53825·PAYLOAD·🇺🇸 United States

Lançado Sep 19, 2022 de Cape Canaveral Space Force Station

Loading…

Próximas Passagens (próximas 24 horas)

TLE

AtualizadoSource: CelesTrak SupGP

Época: Sep 14, 2026, 21:49 UTC

1 53825C 22114H   26257.90951389 -.00029154  00000+0 -83422-3 0  2570
2 53825  53.1576 165.9349 0001260  93.6286 238.7210 15.35409367    19

Acompanhe STARLINK-4751 em tempo real com AllMySat

Download on the App Store